Flag for Brazil Weather past 2 weeks in Itumbiara, Goiás, Brazil

Now
68 °F

Sunny.


Feels Like: 68 °F
Forecast: 65 / 85 °F
Wind: 10 mph from East

Location: Uberlandia Airport

Current Time: Apr 28, 2015 at 9:20:28 AM

Latest Report: Apr 28, 2015 at 8:00 AM


Visibility: 10 mi

Pressure: 30.09 "Hg

Humidity: 78%

Dew point: 61 °F

Location of ItumbiaraLocation

Historic Weather in Itumbiara — Graph

°F

Itumbiara temperature yesterday

Maximum temperature yesterday: 79 °F (at 3:00 PM)
Minimum temperature yesterday: 63 °F (at 2:00 AM)
Average temperature yesterday: 70 °F

Past Weeks' High & Low Weather Summary

 TemperatureHumidityPressure
High84 °F (Apr 17, 1:00 PM)100% (Apr 23, 8:00 PM)30.18 "Hg (Apr 23, 8:00 PM)
Low63 °F (Apr 26, 4:00 AM)42% (Apr 26, 2:00 PM)29.98 "Hg (Apr 16, 4:00 PM)
Average73 °F75%30.08 "Hg
* Reported Apr 13 12:00 Noon — Apr 28 8:00 AM, Itumbiara, Weather by CustomWeather, © 2015

Note: Actual official high and low records may vary slightly from our data, if they occured in-between our weather recording intervals... More about our weather records

Advertising

Itumbiara weather history for previous 24 hours

 ConditionsComfort  
Time TempWeatherWind HumidityBarometerVisibility
8:00 AM
Tue, Apr 28
68 °FSunny.10 mph78%30.09 "Hg10 mi
7:00 AM64 °FSunny.8 mph83%30.09 "Hg10 mi
6:00 AM64 °FClear.8 mph88%30.07 "Hg10 mi
5:00 AM64 °FClear.8 mph88%30.07 "Hg10 mi
4:00 AM64 °FClear.8 mph88%30.07 "Hg10 mi
3:00 AM64 °FClear.7 mph88%30.07 "Hg10 mi
2:00 AM64 °FClear.8 mph88%30.07 "Hg10 mi
1:00 AM66 °FClear.7 mph78%30.09 "Hg10 mi
12:00 AM68 °FClear.7 mph73%30.09 "Hg10 mi
11:00 PM
Mon, Apr 27
68 °FClear.5 mph73%30.09 "Hg10 mi
10:00 PM70 °FClear.5 mph64%30.09 "Hg10 mi
9:00 PM70 °FClear.6 mph64%30.07 "Hg10 mi
8:00 PM72 °FClear.5 mph61%30.07 "Hg10 mi
7:00 PM73 °FClear.2 mph57%30.04 "Hg10 mi
6:00 PM73 °FClear.3 mph57%30.04 "Hg10 mi
5:00 PM79 °FPassing clouds.6 mph45%30.04 "HgN/A
4:00 PM79 °FPassing clouds.6 mph45%30.04 "HgN/A
3:00 PM79 °FPassing clouds.8 mph48%30.04 "HgN/A
2:00 PM77 °FScattered clouds.8 mph54%30.07 "HgN/A
1:00 PM77 °FScattered clouds.12 mph57%30.09 "HgN/A
12:00 PM75 °FScattered clouds.13 mph65%30.09 "HgN/A
11:00 AM73 °FScattered clouds.15 mph69%30.12 "HgN/A
10:00 AM72 °FScattered clouds.15 mph73%30.15 "HgN/A
9:00 AM70 °FPassing clouds.13 mph69%30.15 "HgN/A
Weather by CustomWeather, © 2015

See weather overviewHow to use our weather pages